SWA3652 KBWI-KRIC

Flight info

Callsign SWA3652
Flight time 0h 27m
Altitude 12000
Route CONLE5 COLIN
Aircraft B38M/M-SADE2E3GIJ4J7RWZ/LB1D1

Departure

Time 2026-05-04 20:15
Airport Baltimore/Washington International Thurgood Marshall Airport (KBWI)

Arrival

Time 2026-05-04 20:43
Airport Richmond International Airport (KRIC)
Time Latitude Longitude Altitude Speed Heading
2026-05-04 19:45 39.17715 -76.67049 147 ft 0 kts 92°
2026-05-04 20:06 39.17715 -76.67059 147 ft 2 kts 92°
2026-05-04 20:06 39.17715 -76.67078 147 ft 1 kts 92°
2026-05-04 20:06 39.17716 -76.67091 147 ft 2 kts 88°
2026-05-04 20:07 39.17714 -76.67110 146 ft 2 kts 77°
2026-05-04 20:07 39.17710 -76.67128 146 ft 2 kts 68°
2026-05-04 20:07 39.17704 -76.67145 146 ft 2 kts 59°
2026-05-04 20:07 39.17700 -76.67153 146 ft 1 kts 54°
2026-05-04 20:08 39.17699 -76.67155 146 ft 0 kts 55°
2026-05-04 20:11 39.17701 -76.67148 146 ft 1 kts 86°
2026-05-04 20:11 39.17681 -76.67123 146 ft 7 kts 147°
2026-05-04 20:11 39.17619 -76.67072 146 ft 12 kts 147°
2026-05-04 20:11 39.17553 -76.66992 147 ft 12 kts 120°
2026-05-04 20:12 39.17533 -76.66872 148 ft 14 kts 94°
2026-05-04 20:12 39.17525 -76.66730 148 ft 16 kts 93°
2026-05-04 20:12 39.17524 -76.66582 148 ft 16 kts 65°
2026-05-04 20:12 39.17570 -76.66468 147 ft 15 kts 114°
2026-05-04 20:13 39.17509 -76.66346 145 ft 16 kts 123°
2026-05-04 20:13 39.17458 -76.66221 142 ft 14 kts 102°
2026-05-04 20:13 39.17448 -76.66090 139 ft 14 kts 94°
2026-05-04 20:13 39.17442 -76.65964 136 ft 14 kts 94°
2026-05-04 20:14 39.17434 -76.65835 133 ft 14 kts 94°
2026-05-04 20:14 39.17426 -76.65699 129 ft 15 kts 94°
2026-05-04 20:14 39.17414 -76.65565 126 ft 14 kts 116°
2026-05-04 20:14 39.17327 -76.65526 125 ft 14 kts 183°
2026-05-04 20:15 39.17287 -76.65686 128 ft 45 kts 275°
2026-05-04 20:15 39.17328 -76.66395 144 ft 112 kts 273°
2026-05-04 20:15 39.17404 -76.67654 174 ft 163 kts 271°
2026-05-04 20:15 39.17513 -76.69111 814 ft 167 kts 271°
2026-05-04 20:16 39.17588 -76.70634 1448 ft 173 kts 269°
2026-05-04 20:16 39.17656 -76.72311 1760 ft 201 kts 270°
2026-05-04 20:16 39.17658 -76.74232 2114 ft 225 kts 253°
2026-05-04 20:16 39.16821 -76.75825 2926 ft 223 kts 211°
2026-05-04 20:17 39.15342 -76.76350 3682 ft 232 kts 178°
2026-05-04 20:17 39.13802 -76.75568 4249 ft 255 kts 143°
2026-05-04 20:17 39.12485 -76.73977 4943 ft 265 kts 142°
2026-05-04 20:17 39.11026 -76.72453 5578 ft 275 kts 146°
2026-05-04 20:18 39.09549 -76.71018 6599 ft 270 kts 147°
2026-05-04 20:18 39.08037 -76.69553 7303 ft 278 kts 147°
2026-05-04 20:18 39.06495 -76.68028 8095 ft 283 kts 147°
2026-05-04 20:18 39.04955 -76.66493 8892 ft 286 kts 146°
2026-05-04 20:19 39.03482 -76.64771 9740 ft 291 kts 137°
2026-05-04 20:19 39.02145 -76.62804 10507 ft 296 kts 135°
2026-05-04 20:19 39.00760 -76.60688 10712 ft 320 kts 134°
2026-05-04 20:19 38.99282 -76.58445 10944 ft 341 kts 134°
2026-05-04 20:20 38.97740 -76.56110 11592 ft 347 kts 134°
2026-05-04 20:20 38.96134 -76.53690 11991 ft 358 kts 134°
2026-05-04 20:20 38.94452 -76.51341 12000 ft 354 kts 144°
2026-05-04 20:20 38.92363 -76.49857 12027 ft 341 kts 167°
2026-05-04 20:21 38.90051 -76.49471 12038 ft 336 kts 184°
2026-05-04 20:21 38.87716 -76.49817 12036 ft 334 kts 193°
2026-05-04 20:21 38.83256 -76.51358 12028 ft 331 kts 202°
2026-05-04 20:22 38.81093 -76.52435 12024 ft 331 kts 203°
2026-05-04 20:22 38.78965 -76.53521 12021 ft 331 kts 203°
2026-05-04 20:22 38.76811 -76.54606 12018 ft 331 kts 203°
2026-05-04 20:22 38.74661 -76.55675 12014 ft 332 kts 203°
2026-05-04 20:23 38.72518 -76.56735 12010 ft 332 kts 202°
2026-05-04 20:23 38.70382 -76.57787 12010 ft 332 kts 202°
2026-05-04 20:23 38.68225 -76.58842 12015 ft 331 kts 202°
2026-05-04 20:23 38.66057 -76.59853 12017 ft 331 kts 201°
2026-05-04 20:24 38.63905 -76.60838 11976 ft 331 kts 201°
2026-05-04 20:24 38.61759 -76.61822 11958 ft 329 kts 201°
2026-05-04 20:24 38.59586 -76.62821 11965 ft 329 kts 201°
2026-05-04 20:24 38.57442 -76.63810 11966 ft 330 kts 201°
2026-05-04 20:25 38.55307 -76.64795 11968 ft 330 kts 201°
2026-05-04 20:25 38.53135 -76.65797 11968 ft 329 kts 201°
2026-05-04 20:25 38.50992 -76.66786 11969 ft 329 kts 201°
2026-05-04 20:25 38.48852 -76.67773 11970 ft 329 kts 201°
2026-05-04 20:26 38.46709 -76.68761 11972 ft 329 kts 202°
2026-05-04 20:26 38.44562 -76.69749 11974 ft 329 kts 201°
2026-05-04 20:26 38.42353 -76.70543 11974 ft 331 kts 194°
2026-05-04 20:26 38.40073 -76.70923 11980 ft 333 kts 186°
2026-05-04 20:27 38.37731 -76.70873 11981 ft 336 kts 178°
2026-05-04 20:27 38.35411 -76.70542 11982 ft 337 kts 176°
2026-05-04 20:27 38.33114 -76.70163 11978 ft 338 kts 176°
2026-05-04 20:27 38.30771 -76.69772 11976 ft 338 kts 176°
2026-05-04 20:28 38.28441 -76.69411 11973 ft 337 kts 180°
2026-05-04 20:28 38.26192 -76.69873 11969 ft 329 kts 206°
2026-05-04 20:28 38.24372 -76.71564 11989 ft 327 kts 227°
2026-05-04 20:28 38.22928 -76.73806 11972 ft 329 kts 233°
2026-05-04 20:29 38.21571 -76.76170 11971 ft 327 kts 234°
2026-05-04 20:29 38.20266 -76.78486 11977 ft 327 kts 234°
2026-05-04 20:29 38.18933 -76.80856 11979 ft 327 kts 234°
2026-05-04 20:29 38.17607 -76.83215 11983 ft 327 kts 234°
2026-05-04 20:30 38.16271 -76.85583 11987 ft 327 kts 234°
2026-05-04 20:30 38.14963 -76.87894 11900 ft 319 kts 234°
2026-05-04 20:30 38.13696 -76.90129 11522 ft 311 kts 234°
2026-05-04 20:30 38.12439 -76.92346 11043 ft 307 kts 234°
2026-05-04 20:31 38.11203 -76.94533 10573 ft 302 kts 234°
2026-05-04 20:31 38.10017 -76.96637 10463 ft 287 kts 234°
2026-05-04 20:31 38.08883 -76.98651 10356 ft 273 kts 234°
2026-05-04 20:31 38.07786 -77.00596 10042 ft 269 kts 234°
2026-05-04 20:32 38.06701 -77.02522 9673 ft 267 kts 234°
2026-05-04 20:32 38.05633 -77.04421 9292 ft 265 kts 234°
2026-05-04 20:32 38.04565 -77.06329 8883 ft 265 kts 234°
2026-05-04 20:32 38.03512 -77.08218 8504 ft 263 kts 234°
2026-05-04 20:33 38.02461 -77.10111 8103 ft 262 kts 234°
2026-05-04 20:33 38.01421 -77.11986 7695 ft 262 kts 234°
2026-05-04 20:33 38.00369 -77.13889 7309 ft 261 kts 234°
2026-05-04 20:33 37.99329 -77.15770 6911 ft 260 kts 234°
2026-05-04 20:34 37.98292 -77.17641 6509 ft 260 kts 234°
2026-05-04 20:34 37.97253 -77.19510 6128 ft 259 kts 234°
2026-05-04 20:34 37.96220 -77.21357 5741 ft 258 kts 233°
2026-05-04 20:34 37.94919 -77.22875 5379 ft 257 kts 212°
2026-05-04 20:35 37.93285 -77.23821 5153 ft 261 kts 202°
2026-05-04 20:35 37.91581 -77.24590 4905 ft 262 kts 202°
2026-05-04 20:35 37.89870 -77.25405 4650 ft 261 kts 204°
2026-05-04 20:35 37.88182 -77.26274 4397 ft 260 kts 205°
2026-05-04 20:36 37.86516 -77.27158 4147 ft 260 kts 205°
2026-05-04 20:36 37.84873 -77.28037 3899 ft 260 kts 205°
2026-05-04 20:36 37.83198 -77.28934 3647 ft 259 kts 205°
2026-05-04 20:36 37.81552 -77.29816 3397 ft 259 kts 205°
2026-05-04 20:37 37.79890 -77.30707 3145 ft 258 kts 205°
2026-05-04 20:37 37.78251 -77.31584 2996 ft 255 kts 205°
2026-05-04 20:37 37.76611 -77.32462 3008 ft 257 kts 205°
2026-05-04 20:37 37.74980 -77.33335 2998 ft 258 kts 205°
2026-05-04 20:38 37.73320 -77.34223 2997 ft 257 kts 205°
2026-05-04 20:38 37.71695 -77.35094 2999 ft 255 kts 205°
2026-05-04 20:38 37.70086 -77.35953 2953 ft 242 kts 205°
2026-05-04 20:38 37.68588 -77.36755 2865 ft 231 kts 205°
2026-05-04 20:39 37.67131 -77.37534 2797 ft 220 kts 205°
2026-05-04 20:39 37.65773 -77.38259 2739 ft 207 kts 205°
2026-05-04 20:39 37.64495 -77.38931 2595 ft 194 kts 205°
2026-05-04 20:39 37.63289 -77.39571 2485 ft 180 kts 205°
2026-05-04 20:40 37.62107 -77.40004 2476 ft 179 kts 185°
2026-05-04 20:40 37.60900 -77.39686 2308 ft 179 kts 159°
2026-05-04 20:40 37.59831 -77.38900 2071 ft 178 kts 152°
2026-05-04 20:40 37.58769 -77.38057 1888 ft 179 kts 152°
2026-05-04 20:41 37.57764 -77.37246 1691 ft 168 kts 151°
2026-05-04 20:41 37.56815 -77.36470 1452 ft 157 kts 150°
2026-05-04 20:41 37.55908 -77.35740 1206 ft 155 kts 153°
2026-05-04 20:41 37.54994 -77.35010 988 ft 155 kts 152°
2026-05-04 20:42 37.54098 -77.34294 771 ft 151 kts 153°
2026-05-04 20:42 37.53206 -77.33588 565 ft 152 kts 152°
2026-05-04 20:42 37.52315 -77.32882 359 ft 151 kts 152°
2026-05-04 20:42 37.51445 -77.32179 174 ft 149 kts 150°
2026-05-04 20:43 37.50719 -77.31603 165 ft 86 kts 148°
2026-05-04 20:43 37.50396 -77.31345 164 ft 33 kts 148°
2026-05-04 20:43 37.50276 -77.31326 164 ft 14 kts 237°
2026-05-04 20:43 37.50225 -77.31426 164 ft 12 kts 237°
2026-05-04 20:44 37.50194 -77.31503 164 ft 5 kts 304°
2026-05-04 20:44 37.50271 -77.31557 164 ft 18 kts 332°
2026-05-04 20:44 37.50377 -77.31660 165 ft 19 kts 287°
2026-05-04 20:44 37.50387 -77.31837 165 ft 21 kts 272°
2026-05-04 20:45 37.50399 -77.32041 165 ft 25 kts 274°
2026-05-04 20:45 37.50413 -77.32266 165 ft 26 kts 275°
2026-05-04 20:45 37.50427 -77.32478 165 ft 23 kts 274°
2026-05-04 20:45 37.50438 -77.32677 166 ft 23 kts 273°
2026-05-04 20:46 37.50462 -77.32882 166 ft 21 kts 285°
2026-05-04 20:46 37.50518 -77.32999 166 ft 15 kts 350°
2026-05-04 20:46 37.50611 -77.33007 166 ft 9 kts 308°
2026-05-04 20:46 37.50625 -77.33064 166 ft 2 kts 282°
2026-05-04 20:47 37.50626 -77.33070 166 ft 0 kts 284°